[[{"header":{"parameterUnit":"m.s-1","parameterCategory":2,"la1":30.2991,"la2":30.254,"lo1":-89.0895,"lo2":-89.0444,"dy":0.0017,"dx":0.0017,"nx":28,"ny":28,"refTime":"2023-11-17T03:00:00:Z","depth":"0","parameterNumber":2,"parameterNumberName":"U-component_of_CURRENTS"},"data":[0,0,0,0,0,0,0,0,0,0,0,0,0,0,0,0,0,0,0,0,0,0,0,0,0,0,0,0,0,0,0,0,0,0,0,0,0,0,0,0,0,0,0,0,0,0,0,0,0,0,0,0,0,0,0,0,0,0,0.4494,0.4494,0,0.4555,0.4556,0.4556,0.4546,0.4545,0.4544,0.4543,0.449,0.449,0.4489,0,0,0,0,0,0,0,0,0,0,0,0,0,0.4466,0.4466,0.4494,0.4494,0.4495,0.4555,0.4556,0.4556,0.4546,0.4545,0.4543,0.4542,0.449,0.449,0.4489,0,0,0,0,0,0,0,0,0,0,0,0,0,0.4498,0.4466,0.4494,0.4497,0.4498,0.4555,0.4556,0.4557,0.4546,0.4545,0.4543,0.4542,0.449,0.449,0.4489,0.4519,0,0,0.4488,0.4487,0,0,0,0,0,0,0,0,0.4496,0.4499,0.4496,0.4497,0.4498,0.4541,0.4527,0.4538,0.4547,0.4528,0.4543,0.4541,0.4497,0.4496,0.4514,0.4516,0.4514,0.4487,0.4487,0.4487,0.4487,0,0,0,0,0,0,0,0.4494,0.4497,0.4518,0.4497,0.4498,0.4529,0.4531,0.453,0.452,0.453,0.4529,0.4536,0.4497,0.4514,0.4512,0.4513,0.4488,0.4487,0.4487,0.4486,0.4556,0.4558,0,0,0,0,0,0,0.4482,0.4494,0.4516,0.452,0.4492,0.453,0.4533,0.4529,0.4522,0.452,0.4537,0.4535,0.4516,0.4513,0.451,0.4548,0.4487,0.4486,0.4486,0.4554,0.4556,0.4559,0,0,0,0,0,0,0.4481,0.4483,0.4514,0.4509,0.4515,0.4532,0.4529,0.4531,0.4552,0.4529,0.4524,0.4555,0.4515,0.4511,0.4515,0.4545,0.4486,0.4486,0.4551,0.4554,0.4557,0.4621,0,0,0,0,0,0,0.448,0.4482,0.448,0.4508,0.4515,0.4548,0.453,0.4533,0.4558,0.4556,0.4543,0.4536,0.4513,0.4516,0.4514,0.4543,0.4485,0.4548,0.4553,0.4556,0.4616,0.4626,0.4634,0,0,0,0,0,0.4479,0.4477,0.4479,0.4482,0.4509,0.4549,0.4556,0.4564,0.456,0.4575,0.4567,0.4537,0.4541,0.4517,0.4515,0.4544,0.4546,0.4551,0.4556,0.4612,0.4624,0.4634,0,0,0,0,0,0,0.4451,0.4477,0.448,0.4482,0.4515,0.4547,0.4561,0.4575,0.4587,0.458,0.4558,0.4552,0.4574,0.4555,0.453,0.458,0.4542,0.4547,0.4586,0.4597,0.4606,0.4617,0.4485,0,0,0,0,0,0.4448,0.446,0.449,0.4494,0.4511,0.4543,0.4562,0.4572,0.4586,0.4591,0.4586,0.4584,0.4596,0.459,0.4596,0.4615,0.4612,0.4637,0.4646,0.4654,0.4665,0.4722,0.4737,0.4575,0.4575,0.4575,0,0,0.4445,0.4455,0.4465,0.4492,0.4516,0.4548,0.455,0.4582,0.4608,0.4582,0.4608,0.4617,0.4612,0.4639,0.4646,0.462,0.4691,0.466,0.4666,0.4673,0.4728,0.4744,0.4758,0.4578,0.4577,0.4577,0,0,0.4437,0.445,0.4458,0.4495,0.4532,0.4556,0.4569,0.4611,0.4627,0.4663,0.4657,0.4689,0.4693,0.4708,0.4712,0.478,0.4746,0.4778,0.4821,0.4876,0.489,0.4902,0.4882,0.4892,0.4773,0.4773,0.4773,0,0.4428,0.4435,0.447,0.4494,0.452,0.4561,0.4583,0.4621,0.466,0.4689,0.4672,0.4743,0.4734,0.4788,0.4807,0.4801,0.4799,0.4774,0.4888,0.49,0.4911,0.4888,0.4898,0.4777,0.4776,0.4776,0.4776,0,0.443,0.4447,0.446,0.45,0.4538,0.4568,0.4623,0.4666,0.4693,0.4736,0.4806,0.4819,0.4862,0.487,0.4852,0.4934,0.4894,0.4899,0.4856,0.4931,0.4901,0.4911,0.4782,0.4781,0.478,0.4779,0,0,0.4369,0.4444,0.4448,0.4469,0.4543,0.457,0.4635,0.4703,0.4752,0.4814,0.4873,0.4931,0.4963,0.4973,0.4974,0.5014,0.5076,0.4986,0.4987,0.4957,0.5145,0.5087,0.509,0.5102,0.5105,0.5108,0.5078,0,0.4351,0.4381,0.4433,0.4477,0.4497,0.458,0.4635,0.4715,0.4781,0.4853,0.4923,0.4977,0.4995,0.5009,0.5071,0.5079,0.511,0.508,0.5085,0.5083,0.5018,0.5104,0.4942,0.4902,0.5087,0.5088,0.5089,0,0.4315,0.4344,0.4373,0.4457,0.4476,0.4521,0.4622,0.4684,0.4817,0.4873,0.498,0.5026,0.5113,0.5102,0.5197,0.5176,0.5172,0.5173,0.5172,0.5107,0.5046,0.4866,0.4911,0.4819,0.5103,0.5102,0.5101,0,0.4219,0.4294,0.4308,0.4342,0.445,0.4491,0.4558,0.4691,0.476,0.4891,0.4956,0.5073,0.5129,0.5182,0.5225,0.5206,0.5301,0.527,0.521,0.5201,0.506,0.5036,0.5015,0.5336,0.5336,0.5336,0.5336,0,0.4159,0.4176,0.427,0.4286,0.4331,0.4432,0.4505,0.4604,0.4743,0.4837,0.4964,0.5048,0.5161,0.5236,0.5243,0.5271,0.533,0.5234,0.5216,0.5072,0.5051,0.4962,0.4934,0.5335,0.5335,0.5335,0.5336,0,0.4062,0.4112,0.4145,0.4252,0.4285,0.4325,0.4475,0.4539,0.4687,0.481,0.4852,0.5046,0.5146,0.5231,0.53,0.5292,0.5168,0.5291,0.5083,0.5043,0.4873,0.4854,0.4629,0.4488,0.5193,0.5191,0.519,0,0.402,0.4021,0.4108,0.4134,0.4188,0.4267,0.4323,0.4485,0.4573,0.4805,0.4858,0.5011,0.5105,0.5202,0.5218,0.5218,0.5101,0.5044,0.4997,0.4861,0.4828,0.4641,0.4525,0.4803,0.4799,0.4796,0.4793,0,0.3963,0.3988,0.4028,0.4072,0.4123,0.418,0.4288,0.4342,0.4538,0.4621,0.4764,0.485,0.5016,0.4979,0.503,0.5014,0.4821,0.4973,0.4907,0.4596,0.4317,0.4172,0.4778,0.4763,0.4766,0.4768,0.477,0.4771,0.3935,0.3942,0.3986,0.4007,0.4053,0.4082,0.4054,0.4175,0.4242,0.4319,0.455,0.4583,0.4737,0.4797,0.4757,0.4637,0.4613,0.4508,0.4511,0.4342,0.4171,0.469,0.4626,0.4628,0.463,0.4631,0.4633,0,0.387,0.3883,0.3921,0.3916,0.3875,0.3951,0.3998,0.3921,0.3878,0.4047,0.41,0.4235,0.4241,0.434,0.4369,0.423,0.4006,0.4108,0.3824,0.3746,0.428,0.4234,0.3994,0.3994,0.3994,0.3994,0.3994,0.3994,0.3847,0.382,0.3812,0.3712,0.3694,0.3562,0.3521,0.3447,0.3494,0.3469,0.3517,0.3675,0.4014,0.4162,0.4075,0.3959,0.3665,0.3479,0.3467,0.3903,0.394,0.3975,0.3925,0.3625,0.3624,0.2755,0.2749,0.2744]},{"header":{"parameterUnit":"m.s-1","parameterCategory":2,"la1":30.2991,"la2":30.254,"lo1":-89.0895,"lo2":-89.0444,"dy":0.0017,"dx":0.0017,"nx":28,"ny":28,"refTime":"2023-11-17T03:00:00:Z","depth":"0","parameterNumber":3,"parameterNumberName":"V-component_of_CURRENTS"},"data":[0,0,0,0,0,0,0,0,0,0,0,0,0,0,0,0,0,0,0,0,0,0,0,0,0,0,0,0,0,0,0,0,0,0,0,0,0,0,0,0,0,0,0,0,0,0,0,0,0,0,0,0,0,0,0,0,0,0,-0.0153,-0.0154,0,-0.0247,-0.0248,-0.025,-0.0307,-0.0307,-0.0307,-0.0307,-0.0411,-0.0414,-0.0417,0,0,0,0,0,0,0,0,0,0,0,0,0,-0.013,-0.0129,-0.0153,-0.0154,-0.0155,-0.0246,-0.0248,-0.025,-0.0307,-0.0307,-0.0307,-0.0307,-0.041,-0.0414,-0.0417,0,0,0,0,0,0,0,0,0,0,0,0,0,-0.0177,-0.0129,-0.0153,-0.0191,-0.0195,-0.0246,-0.0248,-0.025,-0.0307,-0.0307,-0.0307,-0.0306,-0.0409,-0.0413,-0.0418,-0.0448,0,0,-0.0431,-0.0433,0,0,0,0,0,0,0,0,-0.0174,-0.0178,-0.0185,-0.0188,-0.0193,-0.0261,-0.0278,-0.0316,-0.0307,-0.0269,-0.0307,-0.0306,-0.0359,-0.0368,-0.0392,-0.0453,-0.0458,-0.0431,-0.0434,-0.0436,-0.0437,0,0,0,0,0,0,0,-0.0171,-0.0175,-0.0195,-0.0185,-0.019,-0.0239,-0.0245,-0.0286,-0.0318,-0.0273,-0.0276,-0.0279,-0.0362,-0.0388,-0.0395,-0.0459,-0.0431,-0.0435,-0.0438,-0.044,-0.0525,-0.0524,0,0,0,0,0,0,-0.0145,-0.0171,-0.0192,-0.0197,-0.0178,-0.0239,-0.0246,-0.0243,-0.0317,-0.0327,-0.0279,-0.0281,-0.038,-0.039,-0.0399,-0.0396,-0.0436,-0.044,-0.0442,-0.0525,-0.0524,-0.0524,0,0,0,0,0,0,-0.0144,-0.0145,-0.0188,-0.0184,-0.0192,-0.0238,-0.0235,-0.0245,-0.0259,-0.0321,-0.0332,-0.0281,-0.0381,-0.0393,-0.0415,-0.0402,-0.0442,-0.0446,-0.0525,-0.0525,-0.0524,-0.0418,0,0,0,0,0,0,-0.0143,-0.0144,-0.0133,-0.0181,-0.0191,-0.0195,-0.0235,-0.0247,-0.026,-0.0264,-0.0327,-0.0337,-0.0381,-0.0408,-0.0419,-0.0409,-0.0449,-0.0526,-0.0525,-0.0524,-0.0422,-0.0414,-0.0407,0,0,0,0,0,-0.0141,-0.012,-0.0131,-0.0134,-0.0173,-0.0193,-0.0202,-0.024,-0.026,-0.0255,-0.0297,-0.0335,-0.0412,-0.041,-0.0424,-0.0415,-0.0526,-0.0525,-0.0525,-0.0425,-0.0416,-0.0407,0,0,0,0,0,0,-0.0106,-0.0125,-0.0138,-0.0124,-0.0146,-0.02,-0.0202,-0.0229,-0.0262,-0.0267,-0.0328,-0.034,-0.0358,-0.0401,-0.0398,-0.0439,-0.0477,-0.0479,-0.0397,-0.0388,-0.0381,-0.0339,-0.0453,0,0,0,0,0,-0.0091,-0.0079,-0.0109,-0.0098,-0.0104,-0.0152,-0.0165,-0.0189,-0.0225,-0.024,-0.0282,-0.0331,-0.0369,-0.0387,-0.0428,-0.0448,-0.0476,-0.0453,-0.0445,-0.0439,-0.0415,-0.0444,-0.0436,-0.0522,-0.0522,-0.0522,0,0,-0.0078,-0.0084,-0.008,-0.0089,-0.0115,-0.0105,-0.016,-0.017,-0.0163,-0.0246,-0.025,-0.0304,-0.0368,-0.0387,-0.04,-0.0419,-0.0431,-0.0438,-0.0431,-0.0411,-0.0442,-0.0433,-0.0425,-0.0521,-0.0521,-0.0521,0,0,-0.0035,-0.0047,-0.0019,-0.0028,-0.0044,-0.0069,-0.0063,-0.0105,-0.0123,-0.0138,-0.0196,-0.023,-0.0292,-0.0329,-0.0359,-0.0335,-0.039,-0.036,-0.0288,-0.0316,-0.0308,-0.0302,-0.0329,-0.0326,-0.0356,-0.0356,-0.0356,0,-0.0013,0.0018,-0.0015,0.0011,0.0017,-0.0042,-0.0009,-0.0038,-0.0081,-0.0082,-0.012,-0.02,-0.0261,-0.0276,-0.0275,-0.0315,-0.0341,-0.0314,-0.0303,-0.0298,-0.0293,-0.0323,-0.032,-0.0351,-0.0352,-0.0352,-0.0353,0,0.0052,0.0076,0.009,0.0111,0.0111,0.0125,0.0094,0.0086,0.0053,0.0027,0.0004,-0.0083,-0.0124,-0.0162,-0.0215,-0.0215,-0.0247,-0.0288,-0.0318,-0.0277,-0.0312,-0.0312,-0.0344,-0.0345,-0.0347,-0.0348,0,0,0.0114,0.0136,0.0145,0.0176,0.0168,0.0181,0.0191,0.0197,0.0226,0.0155,0.0185,0.0086,0.0038,0.0001,-0.0078,-0.0114,-0.0121,-0.018,-0.0184,-0.0191,-0.0178,-0.0198,-0.02,-0.016,-0.0159,-0.0159,-0.0216,0,0.0183,0.0261,0.0249,0.0321,0.0359,0.0319,0.0345,0.0337,0.0315,0.0326,0.0228,0.0214,0.0099,0.0079,0.0027,-0.0075,-0.0115,-0.0101,-0.023,-0.0233,-0.0242,-0.0198,-0.0162,-0.0208,-0.0216,-0.0216,-0.0216,0,0.0266,0.0307,0.0395,0.0444,0.0459,0.0494,0.0539,0.0552,0.0538,0.0519,0.0479,0.04,0.0333,0.0227,0.0083,0.0098,-0.0025,-0.0117,-0.0122,-0.0171,-0.0251,-0.0252,-0.0208,-0.0443,-0.0216,-0.0216,-0.0216,0,0.0351,0.0415,0.0497,0.0512,0.0553,0.059,0.0613,0.0623,0.0663,0.0648,0.0681,0.0568,0.0537,0.0371,0.016,0.0125,0.0008,-0.0068,-0.0201,-0.0205,-0.0212,-0.0217,-0.0392,-0.0163,-0.0163,-0.0163,-0.0162,0,0.0439,0.0501,0.0548,0.0593,0.07,0.0691,0.0802,0.0801,0.0837,0.0928,0.0794,0.0834,0.0574,0.0461,0.024,0.0039,0.0065,-0.0165,-0.0211,-0.0176,-0.0177,-0.0414,-0.0545,-0.0165,-0.0164,-0.0164,-0.0164,0,0.0517,0.0546,0.0643,0.0712,0.0747,0.0825,0.0927,0.1004,0.102,0.1136,0.1136,0.1048,0.0903,0.0634,0.0377,0.017,-0.0169,-0.0134,-0.0076,-0.0113,-0.0464,-0.0588,-0.0797,-0.0879,-0.0281,-0.0281,-0.0282,0,0.0561,0.0624,0.074,0.0817,0.0857,0.0968,0.1055,0.1094,0.1192,0.1281,0.1355,0.1248,0.1208,0.0824,0.0426,0.0057,-0.0178,-0.0156,-0.0226,-0.0457,-0.0629,-0.0732,-0.0792,-0.0202,-0.0202,-0.0202,-0.0202,0,0.0647,0.0694,0.0777,0.0933,0.1045,0.1174,0.1305,0.1411,0.149,0.1594,0.1704,0.1677,0.132,0.0954,0.044,0.0185,-0.03,-0.0166,-0.0417,-0.0579,-0.0688,-0.0795,-0.0202,-0.0201,-0.0201,-0.0201,-0.0201,-0.0201,0.0717,0.0792,0.0914,0.1061,0.1195,0.1372,0.1496,0.1647,0.1825,0.1988,0.1955,0.1971,0.144,0.0744,0.0363,-0.0306,-0.033,-0.0521,-0.065,-0.0732,-0.0816,-0.0216,-0.0263,-0.0264,-0.0264,-0.0264,-0.0265,0,0.0806,0.0896,0.1034,0.1214,0.1369,0.1425,0.1656,0.1788,0.2015,0.2164,0.2241,0.2018,0.1365,0.0709,-0.0215,-0.0711,-0.0869,-0.0974,-0.112,-0.1157,-0.0629,-0.0631,-0.0744,-0.0744,-0.0743,-0.0743,-0.0743,-0.0743,0.086,0.1003,0.1069,0.133,0.1461,0.1669,0.1807,0.2005,0.2162,0.2348,0.2383,0.236,0.1872,0.0189,-0.0956,-0.1207,-0.1538,-0.1615,-0.1796,-0.1463,-0.1432,-0.1401,-0.1436,-0.1715,-0.1716,-0.2241,-0.2246,-0.2251]}],[{"header":{"parameterUnit":"m.s-1","parameterCategory":2,"la1":30.2991,"la2":30.254,"lo1":-89.0895,"lo2":-89.0444,"dy":0.0017,"dx":0.0017,"nx":28,"ny":28,"refTime":"2023-11-17T03:00:00:Z","depth":"2","parameterNumber":2,"parameterNumberName":"U-component_of_CURRENTS"},"data":[0,0,0,0,0,0,0,0,0,0,0,0,0,0,0,0,0,0,0,0,0,0,0,0,0,0,0,0,0,0,0,0,0,0,0,0,0,0,0,0,0,0,0,0,0,0,0,0,0,0,0,0,0,0,0,0,0,0,0.3607,0.3609,0,0.3706,0.3706,0.3706,0.3712,0.3712,0.3712,0.3712,0.373,0.3731,0.3731,0,0,0,0,0,0,0,0,0,0,0,0,0,0.3541,0.3541,0.3607,0.3609,0.3611,0.3706,0.3706,0.3706,0.3712,0.3712,0.3712,0.3712,0.373,0.3731,0.3731,0,0,0,0,0,0,0,0,0,0,0,0,0,0.3587,0.3541,0.3606,0.3633,0.3638,0.3706,0.3706,0.3707,0.3713,0.3712,0.3712,0.3712,0.373,0.3731,0.3732,0.3742,0,0,0.3734,0.3735,0,0,0,0,0,0,0,0,0.3585,0.3588,0.3627,0.3632,0.3637,0.3706,0.3691,0.3718,0.3713,0.3673,0.3712,0.3712,0.3722,0.3723,0.3728,0.3742,0.3743,0.3734,0.3735,0.3735,0.3736,0,0,0,0,0,0,0,0.3581,0.3585,0.3635,0.363,0.3636,0.3682,0.3686,0.3696,0.3687,0.3676,0.368,0.3708,0.3722,0.3727,0.3729,0.3743,0.3734,0.3735,0.3736,0.3736,0.3807,0.3808,0,0,0,0,0,0,0.3584,0.3581,0.3632,0.3639,0.3622,0.3684,0.3688,0.3675,0.3689,0.3695,0.3708,0.3708,0.3726,0.3728,0.3729,0.38,0.3735,0.3736,0.3737,0.3805,0.3807,0.3808,0,0,0,0,0,0,0.3582,0.3586,0.3628,0.3624,0.3634,0.3685,0.3671,0.3678,0.3709,0.3716,0.3718,0.3738,0.3726,0.3728,0.3747,0.3798,0.3737,0.3738,0.3804,0.3806,0.3808,0.3904,0,0,0,0,0,0,0.3578,0.3583,0.3592,0.3622,0.3634,0.3678,0.3673,0.368,0.3731,0.3732,0.3742,0.3742,0.3726,0.3745,0.3747,0.3798,0.3738,0.3802,0.3805,0.3807,0.3899,0.3909,0.3917,0,0,0,0,0,0.3575,0.3586,0.359,0.3599,0.3637,0.368,0.3689,0.372,0.3733,0.3746,0.375,0.3743,0.3763,0.3747,0.3749,0.3802,0.3801,0.3804,0.3807,0.3895,0.3907,0.3917,0,0,0,0,0,0,0.3547,0.3589,0.3595,0.3612,0.365,0.3685,0.3713,0.374,0.3756,0.3758,0.3755,0.3755,0.38,0.3778,0.3761,0.3827,0.3784,0.3787,0.385,0.3861,0.387,0.3872,0.3739,0,0,0,0,0,0.355,0.3575,0.3611,0.3628,0.3643,0.3684,0.3715,0.3735,0.3756,0.3765,0.3775,0.3784,0.3811,0.3816,0.3828,0.3856,0.3855,0.3891,0.39,0.3908,0.391,0.3967,0.3982,0.3818,0.3818,0.3818,0,0,0.3551,0.3577,0.3593,0.3629,0.3652,0.3687,0.3697,0.3744,0.3778,0.3764,0.3802,0.3823,0.3828,0.3865,0.3883,0.3854,0.3952,0.3912,0.3919,0.3917,0.3972,0.3988,0.4002,0.382,0.382,0.3819,0,0,0.3555,0.3574,0.3592,0.3634,0.369,0.3711,0.3733,0.3776,0.3795,0.384,0.3848,0.3889,0.3917,0.393,0.3943,0.4005,0.4008,0.4024,0.4065,0.4121,0.4136,0.4148,0.4161,0.4174,0.4018,0.4018,0.4018,0,0.3559,0.3569,0.3608,0.3642,0.3678,0.3724,0.3748,0.3787,0.3836,0.3869,0.3859,0.3952,0.3947,0.4019,0.4036,0.403,0.4052,0.4028,0.4136,0.4148,0.4159,0.417,0.4183,0.4023,0.4022,0.4022,0.4021,0,0.3571,0.3599,0.3615,0.3664,0.3708,0.3741,0.3796,0.3844,0.3881,0.3931,0.4017,0.4023,0.4077,0.4096,0.4082,0.4175,0.4162,0.4153,0.4112,0.4182,0.4188,0.42,0.403,0.4028,0.4027,0.4026,0,0,0.352,0.3603,0.3612,0.3645,0.372,0.3758,0.382,0.3891,0.3955,0.4021,0.4091,0.4156,0.4191,0.4204,0.4214,0.4253,0.434,0.4241,0.4241,0.426,0.4454,0.4389,0.4395,0.4371,0.4374,0.4376,0.4423,0,0.3507,0.3561,0.3609,0.3676,0.3699,0.378,0.3838,0.3929,0.3994,0.4076,0.4141,0.4215,0.4225,0.4257,0.431,0.4338,0.4378,0.4326,0.4376,0.4376,0.4317,0.441,0.4074,0.4084,0.4434,0.4436,0.4438,0,0.3492,0.3529,0.3573,0.3676,0.3695,0.3749,0.386,0.3927,0.4063,0.4123,0.4232,0.4286,0.4376,0.4352,0.4469,0.4447,0.4459,0.4471,0.4473,0.4387,0.4335,0.4071,0.4092,0.4457,0.4456,0.4454,0.4453,0,0.3422,0.3512,0.3542,0.3582,0.3699,0.3742,0.3807,0.3941,0.4013,0.4158,0.4238,0.4357,0.4423,0.4483,0.4537,0.4513,0.4641,0.46,0.4553,0.4547,0.4253,0.4216,0.4675,0.4675,0.4675,0.4675,0.4674,0,0.3382,0.342,0.352,0.3545,0.3606,0.3706,0.3794,0.3889,0.4023,0.4127,0.4261,0.4355,0.447,0.4561,0.4572,0.4619,0.4682,0.4579,0.4572,0.4275,0.4242,0.4553,0.4538,0.4676,0.4676,0.4676,0.4675,0,0.3312,0.3372,0.343,0.354,0.3572,0.3627,0.3771,0.3841,0.3998,0.4126,0.4179,0.4382,0.4511,0.4603,0.469,0.4669,0.4697,0.469,0.4321,0.427,0.4542,0.4531,0.4623,0.4621,0.462,0.4619,0.4618,0,0.3276,0.3301,0.3412,0.3443,0.349,0.3583,0.3635,0.3796,0.3873,0.4137,0.418,0.4378,0.4486,0.4616,0.4609,0.4626,0.4697,0.4306,0.4195,0.4562,0.4546,0.4537,0.4528,0.3828,0.382,0.3814,0.381,0,0.3228,0.3281,0.3319,0.3381,0.3434,0.3497,0.3586,0.3638,0.3839,0.3953,0.411,0.422,0.4399,0.4286,0.4352,0.4311,0.4275,0.4187,0.4682,0.3911,0.3821,0.3803,0.3818,0.3756,0.3762,0.3766,0.3769,0.3771,0.3192,0.3211,0.3275,0.3302,0.3364,0.3387,0.3372,0.348,0.3564,0.3681,0.3896,0.394,0.4018,0.395,0.3848,0.3773,0.4058,0.385,0.3864,0.3886,0.3804,0.3719,0.3617,0.3621,0.3625,0.3628,0.3631,0,0.3149,0.3163,0.3196,0.3198,0.3177,0.3277,0.3311,0.3257,0.3261,0.3417,0.3507,0.3298,0.3268,0.3334,0.3159,0.3182,0.311,0.3031,0.2889,0.2948,0.2999,0.2866,0.2433,0.2428,0.2424,0.242,0,0,0.3123,0.3098,0.308,0.2989,0.3004,0.2929,0.2911,0.2865,0.2907,0.2871,0.2862,0.3126,0.3259,0.2792,0.2753,0.2551,0.2715,0.2457,0.3432,0.3326,0.337,0.3506,0.3375,0,0,0,0,0]},{"header":{"parameterUnit":"m.s-1","parameterCategory":2,"la1":30.2991,"la2":30.254,"lo1":-89.0895,"lo2":-89.0444,"dy":0.0017,"dx":0.0017,"nx":28,"ny":28,"refTime":"2023-11-17T03:00:00:Z","depth":"2","parameterNumber":3,"parameterNumberName":"V-component_of_CURRENTS"},"data":[0,0,0,0,0,0,0,0,0,0,0,0,0,0,0,0,0,0,0,0,0,0,0,0,0,0,0,0,0,0,0,0,0,0,0,0,0,0,0,0,0,0,0,0,0,0,0,0,0,0,0,0,0,0,0,0,0,0,0.0198,0.0197,0,0.0124,0.0123,0.0123,0.0071,0.007,0.0069,0.0069,-0.0062,-0.0064,-0.0067,0,0,0,0,0,0,0,0,0,0,0,0,0,0.0232,0.0232,0.0198,0.0197,0.0195,0.0124,0.0123,0.0123,0.0071,0.007,0.0069,0.0068,-0.0061,-0.0064,-0.0067,0,0,0,0,0,0,0,0,0,0,0,0,0,0.0197,0.0232,0.0198,0.0158,0.0154,0.0124,0.0123,0.0123,0.0071,0.007,0.0069,0.0068,-0.006,-0.0064,-0.0068,-0.0072,0,0,-0.008,-0.0082,0,0,0,0,0,0,0,0,0.0199,0.0196,0.0166,0.0161,0.0156,0.0102,0.0087,0.0054,0.0071,0.0106,0.0069,0.0067,-0.0013,-0.0021,-0.0027,-0.0078,-0.0083,-0.0081,-0.0083,-0.0085,-0.0086,0,0,0,0,0,0,0,0.0202,0.0199,0.0172,0.0164,0.0158,0.0123,0.0118,0.0081,0.0055,0.0103,0.0098,0.0085,-0.0016,-0.0023,-0.0031,-0.0085,-0.0081,-0.0084,-0.0087,-0.0089,-0.0162,-0.0162,0,0,0,0,0,0,0.0209,0.0202,0.0174,0.017,0.0171,0.0123,0.0117,0.0124,0.0056,0.0045,0.0086,0.0083,-0.0015,-0.0026,-0.0036,-0.0049,-0.0085,-0.0089,-0.0091,-0.0163,-0.0162,-0.0162,0,0,0,0,0,0,0.021,0.0208,0.0177,0.018,0.0173,0.0124,0.0131,0.0123,0.0111,0.0043,0.0031,0.0082,-0.0016,-0.003,-0.0065,-0.0054,-0.0091,-0.0095,-0.0164,-0.0163,-0.0162,-0.0073,0,0,0,0,0,0,0.0212,0.0209,0.0217,0.0181,0.0173,0.0168,0.0131,0.0122,0.0103,0.0098,0.0036,0.0023,-0.0018,-0.0058,-0.0069,-0.0061,-0.0098,-0.0164,-0.0163,-0.0162,-0.0076,-0.0069,-0.0063,0,0,0,0,0,0.0214,0.0233,0.0218,0.0214,0.0186,0.0169,0.0163,0.0125,0.0104,0.0109,0.0064,0.0025,-0.0059,-0.006,-0.0073,-0.0067,-0.0165,-0.0163,-0.0162,-0.008,-0.007,-0.0063,0,0,0,0,0,0,0.0256,0.0228,0.0211,0.0222,0.0199,0.0159,0.0161,0.0131,0.0102,0.0094,0.0032,0.0017,-0.0012,-0.0049,-0.0049,-0.0085,-0.0119,-0.012,-0.0051,-0.0043,-0.0037,-0.0005,-0.0102,0,0,0,0,0,0.0269,0.0273,0.0239,0.0248,0.0244,0.0204,0.0191,0.0164,0.013,0.0116,0.0073,0.0026,-0.0015,-0.0036,-0.0076,-0.0093,-0.013,-0.0097,-0.009,-0.0084,-0.0067,-0.0112,-0.0108,-0.0158,-0.0158,-0.0158,0,0,0.0282,0.027,0.0269,0.0256,0.024,0.0247,0.0196,0.0185,0.0184,0.0106,0.0099,0.0046,-0.0015,-0.0034,-0.005,-0.0065,-0.0091,-0.0082,-0.0077,-0.0063,-0.0111,-0.0106,-0.0101,-0.0157,-0.0157,-0.0157,0,0,0.0323,0.0313,0.0332,0.0321,0.0297,0.0278,0.0277,0.0243,0.0224,0.0203,0.0147,0.0109,0.005,0.0015,-0.0014,0.0009,-0.0055,-0.0012,0.005,0.0006,0.001,0.0013,-0.003,-0.0031,-0.0006,-0.0006,-0.0006,0,0.034,0.0365,0.0334,0.0352,0.0352,0.0299,0.0324,0.0301,0.0255,0.0249,0.0213,0.0135,0.0078,0.0055,0.0059,0.0026,-0.0012,0.0024,0.0016,0.0018,0.002,-0.0025,-0.0028,-0.0001,-0.0002,-0.0002,-0.0003,0,0.0394,0.0412,0.0428,0.0438,0.0434,0.0445,0.0413,0.0405,0.0372,0.0344,0.031,0.0233,0.0191,0.0159,0.0112,0.0098,0.0063,0.0028,-0.0001,0.0031,-0.0019,-0.0024,0.0005,0.0003,0.0002,0.0001,0,0,0.0441,0.0462,0.0468,0.0493,0.0481,0.049,0.0496,0.0494,0.0511,0.0445,0.0455,0.037,0.0326,0.0291,0.0221,0.0177,0.0145,0.0114,0.0109,0.008,0.0045,0.002,0.0012,0.0104,0.0104,0.0103,0.0005,0,0.0496,0.0558,0.0547,0.0605,0.0639,0.0603,0.0623,0.0607,0.058,0.0577,0.0487,0.0465,0.0376,0.0354,0.0297,0.0185,0.0138,0.0175,0.0013,0.0008,-0.0012,0.0008,0.005,-0.0034,0.0,-0.0,-0.0001,0,0.0558,0.0593,0.0663,0.0706,0.072,0.0745,0.0777,0.0784,0.0757,0.0734,0.0687,0.0613,0.0539,0.0456,0.0291,0.0317,0.0197,0.0101,0.0095,0.0041,-0.0025,-0.0061,-0.0044,-0.0009,-0.0009,-0.0008,-0.0007,0,0.0621,0.0676,0.0742,0.0754,0.0791,0.0821,0.0841,0.0839,0.0869,0.0837,0.0852,0.0737,0.0694,0.0529,0.0327,0.0307,0.0141,0.0087,-0.0048,-0.0052,-0.006,-0.0064,-0.0022,-0.0022,-0.0022,-0.0022,-0.0021,0,0.0688,0.0738,0.0783,0.0819,0.091,0.0902,0.0991,0.0988,0.1006,0.1068,0.0946,0.0958,0.071,0.058,0.0376,0.016,0.0177,-0.0026,-0.0074,-0.0029,-0.0029,-0.0044,-0.0045,-0.0025,-0.0024,-0.0024,-0.0023,0,0.0745,0.077,0.0852,0.0914,0.0946,0.1011,0.1099,0.1159,0.1162,0.1236,0.1232,0.1124,0.0956,0.0699,0.0432,0.0244,0.0024,-0.006,0.001,-0.0028,-0.0156,-0.0151,-0.022,-0.0221,-0.0223,-0.0224,-0.0225,0,0.0781,0.083,0.0931,0.0995,0.1031,0.1127,0.1202,0.1236,0.1311,0.1349,0.1397,0.126,0.1189,0.0785,0.0421,0.0068,0.002,-0.0122,-0.0155,-0.0134,-0.0174,-0.0167,-0.0161,-0.0139,-0.0139,-0.0139,-0.0139,0,0.0849,0.0884,0.0957,0.109,0.1186,0.13,0.1412,0.1495,0.1551,0.1611,0.166,0.1603,0.1233,0.0872,0.0389,0.0162,-0.0067,-0.0137,-0.0127,-0.0091,-0.0065,-0.0101,-0.0097,-0.0141,-0.014,-0.014,-0.014,-0.014,0.0907,0.0971,0.1072,0.1197,0.1314,0.1463,0.1564,0.1683,0.1814,0.1905,0.185,0.177,0.1374,0.0751,0.0332,-0.0098,-0.0073,-0.0222,-0.0219,-0.0216,-0.0184,-0.0162,-0.025,-0.025,-0.0251,-0.0251,-0.0251,0,0.0977,0.1053,0.117,0.1323,0.1452,0.1506,0.1698,0.1793,0.1951,0.2022,0.2043,0.1673,0.1272,0.0812,0.0167,-0.0211,-0.0228,-0.0321,-0.0267,-0.0262,-0.0258,-0.0227,-0.0306,-0.0307,-0.0309,-0.031,0,0,0.1021,0.1138,0.1193,0.1409,0.1519,0.1695,0.1808,0.1947,0.2039,0.2097,0.205,0.1956,0.1409,0.093,0.0416,0.0041,-0.0019,-0.0018,0.0074,0.0205,0.0213,-0.0146,-0.0086,0,0,0,0,0]}],[{"header":{"parameterUnit":"m.s-1","parameterCategory":2,"la1":30.2991,"la2":30.254,"lo1":-89.0895,"lo2":-89.0444,"dy":0.0017,"dx":0.0017,"nx":28,"ny":28,"refTime":"2023-11-17T03:00:00:Z","depth":"4","parameterNumber":2,"parameterNumberName":"U-component_of_CURRENTS"},"data":[0,0,0,0,0,0,0,0,0,0,0,0,0,0,0,0,0,0,0,0,0,0,0,0,0,0,0,0,0,0,0,0,0,0,0,0,0,0,0,0,0,0,0,0,0,0,0,0,0,0,0,0,0,0,0,0,0,0,0.2102,0.2103,0,0.2175,0.2175,0.2176,0.2248,0.2249,0.2251,0.2252,0.2379,0.2381,0.2383,0,0,0,0,0,0,0,0,0,0,0,0,0,0.1966,0.1968,0.2102,0.2103,0.2104,0.2175,0.2175,0.2176,0.2248,0.2249,0.2251,0.2252,0.2378,0.2381,0.2383,0,0,0,0,0,0,0,0,0,0,0,0,0,0.2026,0.1969,0.2101,0.2152,0.2158,0.2175,0.2175,0.2176,0.2247,0.2249,0.2251,0.2253,0.2377,0.238,0.2384,0.2362,0,0,0.2393,0.2395,0,0,0,0,0,0,0,0,0.2023,0.2031,0.2143,0.2149,0.2155,0.2208,0.2174,0.2242,0.2247,0.2208,0.2252,0.2254,0.2328,0.2336,0.2337,0.2368,0.2373,0.2393,0.2395,0.2397,0.2398,0,0,0,0,0,0,0,0.2019,0.2028,0.2126,0.2145,0.2152,0.2152,0.2162,0.2187,0.2253,0.2212,0.2218,0.2233,0.2332,0.2334,0.2341,0.2375,0.2393,0.2396,0.2398,0.2399,0.2577,0.258,0,0,0,0,0,0,0.202,0.2024,0.2124,0.2129,0.2098,0.2153,0.2165,0.2185,0.2252,0.2265,0.2231,0.2236,0.2328,0.2337,0.2346,0.2476,0.2397,0.24,0.2401,0.2575,0.2578,0.2581,0,0,0,0,0,0,0.2017,0.2028,0.2121,0.2081,0.2094,0.2154,0.2176,0.2186,0.224,0.2267,0.2281,0.2283,0.233,0.2342,0.2431,0.2476,0.2401,0.2404,0.2571,0.2576,0.258,0.2639,0,0,0,0,0,0,0.2013,0.2027,0.2059,0.2082,0.2096,0.217,0.2175,0.2186,0.2245,0.2254,0.2314,0.2325,0.2332,0.2426,0.2434,0.2479,0.2406,0.2568,0.2573,0.2578,0.2634,0.2645,0.2655,0,0,0,0,0,0.2008,0.2037,0.206,0.2074,0.2133,0.2172,0.218,0.2225,0.2247,0.2279,0.2334,0.2326,0.2466,0.2431,0.2439,0.2487,0.2565,0.2572,0.2578,0.2629,0.2643,0.2654,0,0,0,0,0,0,0.1994,0.2048,0.2074,0.212,0.2164,0.2187,0.2224,0.225,0.2313,0.234,0.236,0.2375,0.2471,0.2475,0.2436,0.2557,0.2515,0.2523,0.2551,0.2564,0.2574,0.2574,0.2409,0,0,0,0,0,0.2005,0.2049,0.2092,0.2136,0.216,0.22,0.2228,0.2263,0.2312,0.2343,0.239,0.2443,0.2491,0.2528,0.257,0.263,0.2642,0.2669,0.268,0.2688,0.2697,0.2766,0.2783,0.2602,0.2602,0.2602,0,0,0.2008,0.2049,0.2073,0.2138,0.2173,0.2213,0.2223,0.2285,0.233,0.2346,0.2441,0.2486,0.2519,0.2596,0.2638,0.2612,0.2747,0.2697,0.2703,0.2707,0.2775,0.2792,0.2807,0.2606,0.2606,0.2605,0,0,0.2024,0.2079,0.2116,0.2157,0.223,0.2255,0.2285,0.2346,0.2392,0.2472,0.2506,0.2586,0.2652,0.2692,0.2713,0.2807,0.2804,0.2828,0.2876,0.2944,0.2959,0.2972,0.3004,0.3019,0.2829,0.2829,0.2829,0,0.2032,0.2086,0.2132,0.2177,0.222,0.228,0.2325,0.2369,0.2459,0.2509,0.252,0.2662,0.2692,0.2782,0.282,0.2829,0.286,0.2819,0.2955,0.2969,0.2981,0.3011,0.3027,0.2832,0.2832,0.2832,0.2831,0,0.2059,0.2122,0.2149,0.2228,0.2276,0.2332,0.2395,0.2471,0.2534,0.258,0.2707,0.2758,0.2847,0.2866,0.2869,0.2982,0.2972,0.2961,0.2915,0.3003,0.3029,0.3045,0.2838,0.2836,0.2835,0.2834,0,0,0.2029,0.2146,0.2161,0.221,0.2315,0.235,0.2445,0.254,0.2614,0.2708,0.2804,0.2894,0.2948,0.2978,0.3009,0.3058,0.3166,0.3055,0.3057,0.3072,0.3307,0.3094,0.3091,0.3188,0.3191,0.3194,0.3286,0,0.2046,0.2129,0.219,0.228,0.2327,0.242,0.2496,0.2595,0.2684,0.2795,0.2875,0.2978,0.2981,0.3045,0.3104,0.3163,0.3214,0.3141,0.3233,0.3235,0.3024,0.3104,0.3205,0.3298,0.3302,0.3304,0.3306,0,0.2051,0.2112,0.22,0.2319,0.235,0.2421,0.2568,0.2646,0.2802,0.2873,0.3,0.3069,0.3196,0.3169,0.3315,0.3278,0.3307,0.3325,0.3329,0.3118,0.3051,0.3197,0.3335,0.3333,0.333,0.3328,0.3327,0,0.1998,0.2119,0.2195,0.2235,0.2374,0.2453,0.2541,0.269,0.2776,0.295,0.3039,0.3179,0.3284,0.335,0.3417,0.3389,0.3542,0.3502,0.3332,0.3317,0.3452,0.3437,0.3593,0.3593,0.3593,0.3593,0.3592,0,0.1977,0.2042,0.2188,0.2229,0.233,0.2441,0.2569,0.2676,0.2845,0.2948,0.3096,0.3192,0.3343,0.3446,0.3465,0.345,0.3595,0.335,0.3333,0.3474,0.3461,0.3462,0.3446,0.3596,0.3595,0.3595,0.3594,0,0.1904,0.2004,0.2094,0.2252,0.2312,0.2388,0.2579,0.2659,0.284,0.2987,0.3056,0.3259,0.3378,0.3481,0.3592,0.3501,0.3504,0.346,0.361,0.3599,0.3216,0.3202,0.3262,0.3256,0.325,0.3246,0.3242,0,0.1868,0.1915,0.2088,0.2144,0.223,0.2363,0.2449,0.2638,0.2724,0.2994,0.3047,0.3248,0.3353,0.3338,0.3453,0.3465,0.3425,0.3396,0.3288,0.3208,0.3187,0.3182,0.3176,0.3233,0.3231,0.323,0.3228,0,0.1787,0.1874,0.1941,0.2065,0.2168,0.2256,0.2403,0.245,0.2667,0.2863,0.2958,0.3022,0.3148,0.3207,0.3249,0.325,0.3391,0.3337,0.3347,0.3244,0.3173,0.3156,0.3157,0.3209,0.3212,0.3214,0.3215,0,0.1724,0.1748,0.1857,0.195,0.2065,0.2115,0.2206,0.2307,0.2415,0.2706,0.2734,0.2934,0.3121,0.3099,0.3139,0.3123,0.3062,0.294,0.2969,0.2992,0.2858,0.2726,0.2618,0,0,0,0,0,0.1644,0.1662,0.1733,0.1813,0.192,0.1994,0.2156,0.2251,0.2469,0.2464,0.259,0.2684,0.2749,0.2854,0.2781,0.3016,0.3073,0.2916,0.2947,0.3101,0.3124,0.299,0,0,0,0,0,0,0.1585,0.1647,0.1677,0.1681,0.1718,0.1812,0.1906,0.2054,0.2061,0.2294,0.2342,0.2517,0.2619,0.2763,0.273,0.2759,0.272,0.3044,0.3036,0.3089,0.3109,0.3127,0.2997,0,0,0,0,0]},{"header":{"parameterUnit":"m.s-1","parameterCategory":2,"la1":30.2991,"la2":30.254,"lo1":-89.0895,"lo2":-89.0444,"dy":0.0017,"dx":0.0017,"nx":28,"ny":28,"refTime":"2023-11-17T03:00:00:Z","depth":"4","parameterNumber":3,"parameterNumberName":"V-component_of_CURRENTS"},"data":[0,0,0,0,0,0,0,0,0,0,0,0,0,0,0,0,0,0,0,0,0,0,0,0,0,0,0,0,0,0,0,0,0,0,0,0,0,0,0,0,0,0,0,0,0,0,0,0,0,0,0,0,0,0,0,0,0,0,0.0257,0.0257,0,0.0218,0.0217,0.0217,0.0188,0.0188,0.0188,0.0187,0.0106,0.0104,0.0102,0,0,0,0,0,0,0,0,0,0,0,0,0,0.028,0.028,0.0257,0.0257,0.0256,0.0218,0.0217,0.0217,0.0189,0.0188,0.0188,0.0187,0.0107,0.0104,0.0102,0,0,0,0,0,0,0,0,0,0,0,0,0,0.0259,0.028,0.0257,0.0236,0.0234,0.0218,0.0217,0.0217,0.0189,0.0188,0.0188,0.0187,0.0107,0.0105,0.0102,0.0095,0,0,0.0093,0.0092,0,0,0,0,0,0,0,0,0.026,0.0259,0.024,0.0238,0.0235,0.0206,0.0195,0.0174,0.0189,0.0207,0.0187,0.0187,0.0135,0.013,0.0126,0.0092,0.0088,0.0093,0.0092,0.009,0.009,0,0,0,0,0,0,0,0.0262,0.026,0.0243,0.0239,0.0236,0.0219,0.0216,0.0191,0.0175,0.0205,0.0203,0.0197,0.0134,0.0129,0.0124,0.0087,0.0093,0.0091,0.0089,0.0088,0.0031,0.0032,0,0,0,0,0,0,0.0266,0.0262,0.0244,0.0242,0.0245,0.0219,0.0216,0.0217,0.0176,0.0169,0.0197,0.0196,0.0134,0.0127,0.0121,0.0117,0.009,0.0088,0.0086,0.0031,0.0031,0.0032,0,0,0,0,0,0,0.0267,0.0266,0.0246,0.0249,0.0245,0.0219,0.0221,0.0217,0.0215,0.017,0.0162,0.02,0.0133,0.0125,0.0102,0.0113,0.0087,0.0084,0.0031,0.0031,0.0031,0.0104,0,0,0,0,0,0,0.0268,0.0266,0.0274,0.025,0.0245,0.0244,0.0221,0.0216,0.0211,0.0209,0.017,0.0162,0.0132,0.0106,0.0099,0.0109,0.0082,0.0031,0.0031,0.0031,0.0102,0.0107,0.0111,0,0,0,0,0,0.0269,0.0284,0.0275,0.0273,0.0255,0.0244,0.0241,0.0221,0.0212,0.0217,0.0187,0.0163,0.0102,0.0104,0.0096,0.0105,0.0031,0.0031,0.0031,0.01,0.0106,0.0111,0,0,0,0,0,0,0.03,0.0282,0.0271,0.0281,0.0266,0.0239,0.0246,0.0228,0.0211,0.0209,0.0166,0.0156,0.014,0.0111,0.0113,0.0088,0.0062,0.0061,0.0117,0.0122,0.0127,0.0147,0.008,0,0,0,0,0,0.031,0.0316,0.0292,0.03,0.0298,0.0274,0.0269,0.0253,0.023,0.0223,0.0196,0.0164,0.0135,0.012,0.0092,0.008,0.0042,0.0079,0.0084,0.0088,0.0098,0.0047,0.0048,0.0033,0.0033,0.0033,0,0,0.0325,0.0315,0.0318,0.0307,0.0298,0.0304,0.0271,0.0268,0.027,0.0216,0.0217,0.0181,0.0135,0.0121,0.0111,0.0099,0.0072,0.0089,0.0093,0.01,0.0047,0.0049,0.005,0.0033,0.0033,0.0033,0,0,0.0354,0.035,0.0364,0.0358,0.0344,0.0331,0.0333,0.0312,0.0302,0.0291,0.0252,0.0224,0.0187,0.0156,0.0133,0.0147,0.0099,0.0138,0.0181,0.0132,0.0133,0.0133,0.0087,0.0082,0.0141,0.0141,0.0141,0,0.0371,0.0385,0.0366,0.0377,0.0381,0.0348,0.0366,0.0352,0.0324,0.0321,0.0301,0.0244,0.0204,0.018,0.0184,0.016,0.0125,0.0165,0.0139,0.0139,0.0138,0.009,0.0084,0.0145,0.0145,0.0144,0.0144,0,0.0406,0.0421,0.0432,0.0438,0.044,0.045,0.0429,0.0427,0.0411,0.0392,0.0369,0.031,0.0278,0.0257,0.0224,0.0203,0.0178,0.0152,0.0129,0.0144,0.0092,0.0085,0.015,0.0149,0.0148,0.0147,0,0,0.0434,0.0454,0.0459,0.0478,0.0474,0.0482,0.0489,0.0487,0.0499,0.0458,0.0462,0.0402,0.0372,0.0344,0.0295,0.025,0.0209,0.0208,0.0203,0.017,0.0103,0.0089,0.0079,0.018,0.0179,0.0179,0.0068,0,0.0468,0.0509,0.0507,0.0553,0.0577,0.0559,0.0575,0.0567,0.0549,0.0544,0.0476,0.0461,0.0404,0.0391,0.0337,0.0242,0.0194,0.0242,0.0085,0.0081,0.0073,0.0072,0.0176,0.0063,0.0061,0.006,0.0059,0,0.0502,0.0527,0.0581,0.0621,0.0632,0.0658,0.0683,0.069,0.0667,0.0652,0.0615,0.0562,0.0496,0.0443,0.0292,0.0326,0.0227,0.0147,0.014,0.01,0.0054,0.0041,0.0045,0.0046,0.0047,0.0048,0.0049,0,0.0535,0.058,0.0631,0.0644,0.0681,0.071,0.0732,0.073,0.0751,0.0724,0.0731,0.0637,0.0598,0.0461,0.0296,0.0294,0.0123,0.0093,-0.0015,-0.0017,-0.0004,-0.0003,-0.0013,-0.0013,-0.0013,-0.0012,-0.0012,0,0.0567,0.0609,0.0659,0.0688,0.0762,0.0767,0.0836,0.0838,0.0849,0.0885,0.0799,0.0791,0.0601,0.048,0.032,0.0134,0.0137,-0.0005,-0.0045,0.0028,0.0034,-0.001,-0.0008,-0.0016,-0.0015,-0.0015,-0.0014,0,0.0591,0.0621,0.0688,0.0751,0.0783,0.0837,0.092,0.0958,0.0965,0.1004,0.1002,0.0903,0.0745,0.0543,0.0312,0.0177,-0.0009,-0.0077,0.0023,-0.001,-0.0124,-0.0118,-0.0208,-0.0209,-0.021,-0.0211,-0.0212,0,0.0606,0.0644,0.0743,0.0797,0.0835,0.092,0.0979,0.1016,0.1062,0.1072,0.1092,0.0964,0.087,0.054,0.0318,0.0007,-0.0039,-0.0138,-0.0138,-0.0114,-0.0144,-0.0135,-0.0127,-0.0214,-0.0214,-0.0214,-0.0215,0,0.0632,0.0673,0.0729,0.0845,0.0928,0.1021,0.111,0.1151,0.1192,0.12,0.1162,0.0995,0.0816,0.0548,0.0307,0.0084,-0.0077,-0.0151,-0.0151,-0.0151,-0.0122,-0.0149,-0.014,-0.0219,-0.0218,-0.0218,-0.0218,0,0.0655,0.0698,0.0781,0.0884,0.0992,0.1091,0.1137,0.119,0.1233,0.1241,0.1223,0.1032,0.0921,0.0588,0.0367,0.0143,0.008,0.0002,-0.0006,-0.0005,0.0081,0.0149,0.0106,0,0,0,0,0,0.067,0.072,0.0812,0.0924,0.1032,0.1102,0.1209,0.1243,0.1286,0.1268,0.125,0.1083,0.076,0.0623,0.0396,0.0325,0.0029,0.005,-0.0068,-0.0241,-0.0236,-0.0172,0,0,0,0,0,0,0.0676,0.0759,0.0804,0.094,0.1022,0.1145,0.1218,0.125,0.1242,0.1249,0.1082,0.1015,0.0699,0.0887,0.0388,0.0321,0.0213,-0.0095,-0.01,-0.0244,-0.024,-0.0236,-0.0168,0,0,0,0,0]}]]